x

9444090 - Port Angeles, Wa (ptaw1) Weather Station

10:36 - Sun 29th May 2016 All times are PDT. -7 hours from GMT.

  • Wind
    8mph, 10mph gusts
  • Sea Temp 51°f
  • Aire Temp 53°f
  • Sea Pressure 1024.5mb
  • 9444090 - Port Angeles, Wa
  • 9444090 - Port Angeles, Wa

More Historic Weather Station data

Upgrade to MSW Pro to gain access to the past 30 days of data for over 8000 Wavebouys and Weather Stations around the globe.

Join Pro

Comparision Forecast

View Surf forecast
   
dom 05/29 10:36 8 10 mph 1024.5mb 51f 53f
10:30 9 11 mph 1024.5mb 51f 53f
10:24 7 10 mph 1024.5mb 51f 53f
10:18 6 9 mph 1024.5mb 51f 53f
10:12 6 9 mph 1024.4mb 51f 53f
10:06 6 9 mph 1024.4mb 51f 53f
10:00 6 9 mph 1024.4mb 52f 53f
9:36 6 14 mph 1024.1mb 52f 54f
9:30 6 10 mph 1024.1mb 52f 54f
9:24 6 14 mph 1024.1mb 52f 54f
9:18 8 13 mph 1024mb 52f 54f
9:12 8 15 mph 1023.9mb 52f 54f
9:06 11 15 mph 1023.8mb 52f 55f
9:00 9 14 mph 1023.8mb 52f 55f
8:36 9 14 mph 1023.6mb 52f 55f
8:30 11 17 mph 1023.5mb 52f 55f
8:24 13 15 mph 1023.4mb 52f 55f
8:18 11 17 mph 1023.4mb 52f 55f
8:12 14 17 mph 1023.4mb 52f 55f
8:06 15 21 mph 1023.4mb 52f 55f
8:00 16 23 mph 1023.3mb 52f 55f
7:36  -  mph 1023.1mb 52f 56f
7:30  -  mph 1023.1mb 52f 56f
7:24  -  mph 1023.1mb 52f 56f
7:18  -  mph 1023mb 52f 55f
7:12  -  mph 1022.9mb 52f 56f
7:06  -  mph 1022.9mb 52f 56f
7:00  -  mph 1022.9mb 52f 55f
6:36  -  mph 1022.7mb 52f -
6:30  -  mph 1022.7mb 52f -
6:24  -  mph 1022.7mb 52f -
6:18  -  mph 1022.7mb 52f -
6:12  -  mph 1022.6mb 52f -
6:06  -  mph 1022.5mb 52f -
6:00  -  mph 1022.5mb 52f -
5:36  -  mph 1022.4mb 52f 56f
5:30  -  mph 1022.4mb 52f 55f
5:24  -  mph 1022.4mb 52f 55f
5:18  -  mph 1022.3mb 52f 55f
5:12  -  mph 1022.2mb 52f 55f
5:06  -  mph 1022.2mb 52f 55f
5:00  -  mph 1022.1mb 52f 55f
4:36  -  mph 1022mb 52f -
4:30  -  mph 1021.9mb 52f -
4:24  -  mph 1021.9mb 52f -
4:18  -  mph 1021.9mb 52f -
4:12  -  mph 1021.9mb 52f -
4:06  -  mph 1022mb 52f -
4:00  -  mph 1022mb 52f -
3:36  -  mph 1022mb 52f 55f
3:30  -  mph 1022mb 52f 55f
3:24  -  mph 1022mb 52f 55f
3:18  -  mph 1022mb 52f 55f
3:12  -  mph 1022.1mb 52f 56f
3:06  -  mph 1022.1mb 52f 55f
3:00  -  mph 1022.1mb 52f 55f
2:36 16 22 mph 1021.9mb 52f 55f
2:30 16 24 mph 1021.9mb 52f 54f
2:24 16 21 mph 1021.8mb 52f 54f
2:18 14 23 mph 1021.8mb 52f 55f
2:12 14 21 mph 1021.8mb 52f 55f
2:06 15 24 mph 1021.7mb 52f 54f
2:00 16 21 mph 1021.7mb 52f 55f
1:36 13 16 mph 1021.7mb 52f 55f
1:30 14 20 mph 1021.7mb 52f 55f
1:24 14 22 mph 1021.7mb 52f 55f
1:18 15 20 mph 1021.6mb 52f 55f
1:12 14 17 mph 1021.6mb 52f 54f
1:06 14 20 mph 1021.5mb 52f 54f
1:00 16 22 mph 1021.5mb 52f 54f
12:36 14 18 mph 1021.3mb 52f 54f
12:30 14 16 mph 1021.3mb 52f 55f
12:24 13 17 mph 1021.2mb 52f 54f
12:18 11 16 mph 1021.2mb 52f 54f
12:12 13 18 mph 1021.2mb 52f 54f
12:06 14 17 mph 1021.2mb 52f 54f
12:00 15 18 mph 1021.1mb 52f 54f
11:36 16 21 mph 1020.9mb 52f 54f
11:30 17 21 mph 1020.8mb 52f 53f
11:24 17 23 mph 1020.8mb 52f 53f
11:18 17 21 mph 1020.7mb 52f 53f
11:12 16 22 mph 1020.6mb 52f 53f
11:06 20 24 mph 1020.5mb 52f 53f
11:00 16 22 mph 1020.5mb 52f 53f
10:36 14 18 mph 1020.4mb 52f 53f
10:30 14 18 mph 1020.4mb 52f 53f
10:24 10 14 mph 1020.4mb 52f 53f
10:18 13 18 mph 1020.3mb 52f 53f
10:12 11 15 mph 1020.4mb 52f 53f
10:06 13 17 mph 1020.4mb 52f 53f
10:00 13 17 mph 1020.4mb 51f 53f
9:36 13 17 mph 1020.2mb 51f 53f
9:30 13 16 mph 1020.1mb 51f 53f
9:24 14 17 mph 1020.1mb 51f 53f
9:18 13 16 mph 1020mb 51f 53f
9:12 14 17 mph 1020mb 51f 53f
9:06 11 16 mph 1019.9mb 51f 53f
9:00 11 16 mph 1019.8mb 51f 53f
8:36 11 16 mph 1019.7mb 51f 53f
8:30 9 14 mph 1019.6mb 51f 52f
8:24 10 14 mph 1019.6mb 51f 52f
8:18 10 15 mph 1019.5mb 51f 52f
8:12 13 15 mph 1019.4mb 51f 52f
8:06 15 18 mph 1019.3mb 51f 53f
8:00 10 15 mph 1019.2mb 51f 53f
7:36 10 14 mph 1018.8mb 51f 53f
7:30 14 16 mph 1018.8mb 51f 53f
7:24 13 16 mph 1018.7mb 51f 53f
7:18 11 17 mph 1018.7mb 51f 53f
7:12 13 16 mph 1018.7mb 51f 53f
7:06 10 17 mph 1018.6mb 51f 53f
7:00 13 18 mph 1018.6mb 51f 53f
6:36 10 15 mph 1018.5mb 51f 52f
6:30 10 17 mph 1018.5mb 51f 52f
6:24 11 17 mph 1018.4mb 51f 52f
6:18 11 16 mph 1018.4mb 51f 52f
6:12 11 18 mph 1018.3mb 51f 52f
6:06 13 17 mph 1018.3mb 51f 52f
6:00 8 15 mph 1018.2mb 51f 52f
5:36 8 13 mph 1018.2mb 51f 52f
5:30 6 11 mph 1018.1mb 51f 52f
5:24 6 10 mph 1018.1mb 51f 52f
5:18 3 10 mph 1018.1mb 51f 52f
5:12 2 6 mph 1018mb 51f 52f
5:06 2 7 mph 1017.9mb 51f 52f
5:00 3 7 mph 1018mb 51f 52f
4:36 7 10 mph 1017.8mb 51f 52f
4:30 7 10 mph 1017.7mb 51f 52f
4:24 6 9 mph 1017.7mb 51f 52f
4:18 7 9 mph 1017.7mb 51f 52f
4:12 6 9 mph 1017.7mb 51f 52f
4:06 7 13 mph 1017.7mb 51f 52f
4:00 6 11 mph 1017.7mb 51f 52f
3:36 8 17 mph 1017.6mb 51f 52f
3:30 8 13 mph 1017.5mb 51f 52f
3:24 10 14 mph 1017.5mb 51f 52f
3:18 7 15 mph 1017.5mb 51f 52f
3:12 11 17 mph 1017.5mb 51f 52f
3:06 9 13 mph 1017.5mb 51f 52f
3:00 9 14 mph 1017.4mb 51f 52f
2:36 13 20 mph 1017.4mb 51f 52f
2:30 14 17 mph 1017.4mb 51f 52f
2:24 10 20 mph 1017.4mb 51f 52f
2:18 14 17 mph 1017.4mb 51f 52f
2:12 14 18 mph 1017.3mb 51f 52f
2:06 13 16 mph 1017.3mb 51f 52f
2:00 11 20 mph 1017.3mb 51f 52f
1:36 11 15 mph 1017.3mb 51f 53f
1:30 11 16 mph 1017.2mb 51f 52f
1:24 11 15 mph 1017.2mb 51f 52f
1:18 14 17 mph 1017.2mb 51f 53f
1:12 13 15 mph 1017.1mb 51f 53f
1:06 11 15 mph 1017.1mb 51f 53f
1:00 10 15 mph 1017.1mb 51f 53f
12:36 9 11 mph 1017mb 51f 53f
12:30 6 9 mph 1017mb 51f 53f
12:24 9 11 mph 1017mb 51f 53f
12:18 9 11 mph 1016.9mb 51f 53f
12:12 10 13 mph 1016.9mb 51f 53f
12:06 11 15 mph 1016.9mb 51f 53f
12:00 8 10 mph 1016.9mb 51f 54f
sáb 05/28 11:36 3 5 mph 1016.8mb 51f 54f
11:30 2 3 mph 1016.8mb 51f 54f
11:24 2 6 mph 1016.8mb 51f 54f
11:18 2 5 mph 1016.7mb 51f 54f
11:12 2 5 mph 1016.7mb 51f 54f
11:06 5 6 mph 1016.8mb 51f 54f
11:00 2 8 mph 1016.7mb 51f 54f
10:36 5 8 mph 1016.6mb 51f 54f
10:30 5 8 mph 1016.5mb 51f 54f
10:24 6 10 mph 1016.6mb 51f 54f
10:18 6 9 mph 1016.6mb 51f 54f
10:12 5 8 mph 1016.6mb 51f 53f
10:06 7 9 mph 1016.6mb 51f 53f
10:00 5 7 mph 1016.6mb 51f 54f
9:54 6 7 mph 1016.5mb 51f 54f
9:48 5 7 mph 1016.5mb 51f 54f
9:36 2 6 mph 1016.5mb 51f 54f
9:30 3 9 mph 1016.5mb 51f 54f
9:24 6 10 mph 1016.3mb 51f 54f
9:18 7 9 mph 1016.3mb 51f 54f
9:12 6 11 mph 1016.2mb 51f 54f
9:06 7 8 mph 1016.2mb 51f 53f
9:00 8 10 mph 1016.1mb 51f 53f
8:54 9 10 mph 1016.1mb 51f 53f
8:48 7 9 mph 1016.1mb 52f 54f
8:36 5 9 mph 1016mb 52f 54f
8:30 6 8 mph 1015.9mb 52f 54f
8:24 8 11 mph 1015.9mb 52f 54f
8:18 7 10 mph 1015.9mb 52f 54f
8:12 8 11 mph 1015.9mb 52f 54f
8:06 9 13 mph 1016mb 52f 54f
8:00 9 13 mph 1016mb 52f 54f
7:54 8 11 mph 1015.9mb 52f 54f
7:48 10 14 mph 1015.8mb 52f 54f
7:36  -  mph 1015.8mb 52f 54f
7:30  -  mph 1015.7mb 53f 54f
7:24  -  mph 1015.6mb 53f 54f
7:18  -  mph 1015.5mb 53f 54f
7:12  -  mph 1015.5mb 53f 54f
7:06  -  mph 1015.5mb 53f 54f
7:00  -  mph 1015.4mb 53f 54f
6:54  -  mph 1015.4mb 53f 54f
6:48  -  mph 1015.4mb 53f 54f
6:36  -  mph 1015.3mb 53f 54f
6:30  -  mph 1015.3mb 53f 54f
6:24  -  mph 1015.2mb 52f 54f
6:18  -  mph 1015.2mb 52f 54f
6:12  -  mph 1015.3mb 52f 55f
6:06  -  mph 1015.2mb 52f 54f
6:00  -  mph 1015.2mb 52f 54f
5:54  -  mph 1015mb 53f 55f
5:48  -  mph 1014.9mb 53f 55f
5:36  -  mph 1014.9mb 53f 54f
5:30  -  mph 1015mb 53f 54f
5:24  -  mph 1014.9mb 53f 54f
5:18  -  mph 1014.8mb 53f 54f
5:12  -  mph 1014.8mb 53f 54f
5:06  -  mph 1014.9mb 53f 55f
5:00  -  mph 1014.8mb 53f 55f
4:54  -  mph 1014.8mb 53f 55f
4:48  -  mph 1014.9mb 53f 56f
4:36  -  mph 1014.8mb 53f -
4:30  -  mph 1014.9mb 53f -
4:24  -  mph 1014.9mb 53f -
4:18  -  mph 1015.1mb 53f -
4:12  -  mph 1015.1mb 53f -
4:06  -  mph 1015mb 53f -
4:00  -  mph 1015.1mb 52f -
3:54  -  mph 1015.1mb 52f -
3:48  -  mph 1015.1mb 52f -
3:36  -  mph - 52f 54f
3:30  -  mph - 52f 53f
3:24  -  mph - 52f 54f
3:18  -  mph - 52f 53f
3:12  -  mph - 52f 53f
3:06  -  mph - 52f 53f
3:00  -  mph - 52f 54f
2:54  -  mph - 52f 53f
2:48  -  mph - 52f 53f
2:36 10 14 mph 1014.7mb 51f 53f
2:30 8 13 mph 1014.7mb 51f 53f
2:24 10 13 mph 1014.6mb 51f 53f
2:18 9 10 mph 1014.6mb 51f 53f
2:12 8 11 mph 1014.7mb 51f 53f
2:06 10 11 mph 1014.7mb 51f 53f
2:00 10 13 mph 1014.7mb 51f 53f
1:54 9 10 mph 1014.7mb 51f 54f
1:48 7 9 mph 1014.8mb 51f 53f
1:36 7 8 mph 1014.7mb 52f 54f
1:30 6 7 mph 1014.7mb 52f 54f
1:24 5 7 mph 1014.6mb 52f 54f
1:18 2 5 mph 1014.6mb 52f 54f
1:12 3 7 mph 1014.6mb 52f 54f
1:06 3 6 mph 1014.8mb 52f 54f
1:00 2 3 mph 1014.9mb 52f 54f
12:54 2 3 mph 1015mb 52f 56f
12:48 2 3 mph 1015mb 52f 55f
12:36 1 2 mph 1014.9mb 52f 55f
12:30 2 3 mph 1014.9mb 52f 54f
12:24 3 5 mph 1014.9mb 52f 53f
12:18 3 5 mph 1014.9mb 51f 53f
12:12 3 5 mph 1015mb 51f 53f
12:06 2 3 mph 1015mb 51f 55f
12:00 2
mph
1015.2mb 51f 53f
11:54 2 5 mph 1015.1mb 51f 52f
11:48 3 5 mph 1015.2mb 51f 52f
11:36 1 3 mph 1015.2mb 51f 52f
11:30 1 2 mph 1015.2mb 51f 53f
11:24 3
mph
1015.1mb 51f 52f
11:18 2 3 mph 1015.1mb 51f 53f
11:12 3
mph
1015.2mb 51f 52f
11:06 3
mph
1015.1mb 51f 54f
11:00 2 5 mph 1015.2mb 51f 54f
10:54 2 5 mph 1015.2mb 51f 53f
10:48 2 3 mph 1015.1mb 51f 53f
10:36 1 3 mph 1015.1mb 51f 51f
10:30 2 3 mph 1015.1mb 51f 52f
10:24  -  2 mph 1015.4mb 51f 51f
10:18 2 3 mph 1015.4mb 51f 52f
10:12 3
mph
1015.4mb 51f 52f
10:06 2 3 mph 1015.3mb 51f 51f
10:00 3 5 mph 1015.3mb 51f 51f
9:54 2 5 mph 1015.3mb 51f 51f
9:48 5 6 mph 1015.3mb 51f 51f
9:36 5 6 mph 1015.4mb 51f 51f
9:30 6
mph
1015.4mb 51f 51f
9:24 6
mph
1015.5mb 51f 51f
9:18 2 3 mph 1015.6mb 51f 52f
9:12 3
mph
1015.5mb 51f 51f
9:06 2 3 mph 1015.5mb 51f 51f
9:00 2 3 mph 1015.5mb 51f 51f
8:54  -  2 mph 1015.7mb 51f 51f
8:48 2
mph
1015.7mb 51f 52f
8:36 2 3 mph 1015.6mb 51f 52f
8:30 2
mph
1015.6mb 51f 52f
8:24 2
mph
1015.4mb 51f 51f
8:18 1 2 mph 1015.4mb 51f 51f
8:12 2
mph
1015.5mb 51f 50f
8:06 1 2 mph 1015.5mb 51f 51f
8:00 1 2 mph 1015.5mb 51f 50f
7:54 1 2 mph 1015.5mb 51f 50f
7:48 2
mph
1015.4mb 51f 51f
7:36  -  2 mph 1015.6mb 51f 50f
7:30  -  mph 1015.5mb 51f 50f
7:24  -  mph 1015.7mb 51f 50f
7:18 2 3 mph 1015.8mb 51f 49f
7:12 1 2 mph 1015.9mb 51f 49f
7:06 2 3 mph 1016mb 51f 49f
7:00  -  1 mph 1015.9mb 51f 49f
6:54  -  1 mph 1016mb 51f 49f
6:48 1 3 mph 1016.1mb 51f 49f
6:36 2 3 mph 1016.2mb 51f 49f
6:30 2 3 mph 1016.3mb 51f 50f
6:24 2 3 mph 1016.4mb 51f 49f
6:18 2 5 mph 1016.5mb 51f 49f
6:12 3 5 mph 1016.6mb 51f 49f
6:06 5 6 mph 1016.7mb 51f 49f
6:00 2 3 mph 1016.6mb 51f 49f
5:54 3 5 mph 1016.6mb 51f 49f
5:48 3 5 mph 1016.6mb 51f 49f
5:36 1 2 mph 1016.6mb 51f 49f
5:30 1 2 mph 1016.6mb 51f 49f
5:24  -  1 mph 1016.7mb 51f 49f
5:18  -  2 mph 1016.7mb 51f 49f
5:12 2
mph
1016.7mb 51f 49f
5:06 1 2 mph 1016.8mb 51f 49f
5:00 2 3 mph 1016.8mb 51f 49f
4:54 5 6 mph 1016.8mb 51f 49f
4:48 2 3 mph 1016.9mb 51f 49f
4:36 3 6 mph 1017.1mb 51f 49f
4:30 3 5 mph 1017.1mb 51f 49f
4:24 6 7 mph 1017.2mb 51f 49f
4:18 5 7 mph 1017.3mb 51f 49f
4:12 6 7 mph 1017.4mb 51f 49f
4:06 6 8 mph 1017.5mb 51f 49f
4:00 7 9 mph 1017.6mb 51f 49f
3:54 7 9 mph 1017.7mb 51f 49f
3:48 8 10 mph 1017.8mb 51f 49f
3:36 8 10 mph 1017.9mb 51f 49f
3:30 8 10 mph 1018mb 51f 49f
3:24 8 10 mph 1018.2mb 51f 49f
3:18 8 9 mph 1018.2mb 51f 49f
3:12 7 8 mph 1018.3mb 51f 49f
3:06 7 8 mph 1018.4mb 51f 50f
3:00 8
mph
1018.4mb 51f 50f
2:54 6 7 mph 1018.5mb 51f 50f
2:48 5 6 mph 1018.6mb 51f 50f
2:36 7 9 mph 1018.8mb 51f 50f
2:30 7 8 mph 1018.9mb 51f 50f
2:24 6 8 mph 1018.9mb 51f 50f
2:18 6 7 mph 1019mb 51f 50f
2:12 5 6 mph 1019.1mb 51f 50f
2:06 2 3 mph 1019.1mb 51f 50f
2:00  -  1 mph 1019.2mb 51f 50f
1:54  -  2 mph 1019.3mb 51f 50f
1:48 1 2 mph 1019.3mb 51f 50f
1:36 2
mph
1019.5mb 51f 50f
1:30 2 3 mph 1019.5mb 51f 50f
1:24 2
mph
1019.6mb 51f 50f
1:18 2
mph
1019.6mb 51f 50f
1:12 1 3 mph 1019.6mb 51f 50f
1:06 1 2 mph 1019.7mb 51f 50f
1:00  -  2 mph 1019.7mb 51f 51f
12:54 2 3 mph 1019.7mb 51f 51f
12:48 1 3 mph 1019.7mb 51f 51f
12:36 2
mph
1019.7mb 51f 51f
12:30 2 3 mph 1019.7mb 51f 51f
12:24 2 3 mph 1019.7mb 51f 51f
12:18 3 5 mph 1019.8mb 51f 51f
12:12 1 2 mph 1019.8mb 51f 51f
12:06 2 3 mph 1019.8mb 51f 50f
12:00 2
mph
1019.8mb 51f 50f
vie 05/27 11:54 2
mph
1019.8mb 51f 50f
11:48 2 5 mph 1019.8mb 51f 51f
11:36 6 7 mph 1019.8mb 51f 51f
11:30 6 8 mph 1019.9mb 51f 51f
11:24 7 10 mph 1020mb 51f 51f
11:18 9 10 mph 1020mb 51f 51f
11:12 8 10 mph 1020mb 52f 51f
11:06 8 11 mph 1020.1mb 52f 51f
11:00 9 13 mph 1020.1mb 52f 51f
10:54 9 14 mph 1020.1mb 52f 51f
10:48 10 13 mph 1020.1mb 51f 51f
10:36 10 14 mph 1020.2mb 51f 51f
10:30 8 11 mph 1020.2mb 51f 51f
10:24 9 13 mph 1020.2mb 51f 51f
10:18 10 15 mph 1020.2mb 51f 51f
10:12 10 15 mph 1020.2mb 51f 52f
10:06 11 15 mph 1020.2mb 51f 52f
10:00 9 14 mph 1020.1mb 51f 52f
9:54 7 14 mph 1020.2mb 51f 52f
9:48 10 14 mph 1020.2mb 51f 52f
9:36 10 15 mph 1020.1mb 51f 52f
9:30 9 13 mph 1020.1mb 51f 53f
9:24 9 14 mph 1020mb 52f 53f
9:18 6 13 mph 1020mb 52f 53f
9:12 9 15 mph 1020mb 52f 53f
9:06 10 17 mph 1020mb 52f 53f
9:00 9 16 mph 1020mb 52f 53f
8:54 13 18 mph 1019.9mb 52f 53f
8:48 14 20 mph 1019.9mb 52f 53f
8:36 14 20 mph 1019.8mb 52f 53f
8:30 11 22 mph 1019.9mb 52f 53f
8:24 13 22 mph 1019.9mb 52f 53f
8:18 14 20 mph 1019.9mb 52f 53f
8:12 14 22 mph 1019.8mb 52f 53f
8:06 16 25 mph 1019.9mb 52f 53f
8:00 15 26 mph 1019.9mb 52f 53f
7:54 14 23 mph 1019.9mb 52f 53f
7:48 14 21 mph 1019.9mb 52f 53f
7:36 15 24 mph 1019.9mb - -
7:30 13 18 mph 1020.1mb - -
7:24 13 18 mph 1020.1mb - -
7:18 11 18 mph 1020.1mb - -
7:12 14 20 mph 1020.1mb - -
7:06 13 18 mph 1020.1mb - -
7:00 14 18 mph 1020.1mb - -
6:54 13 20 mph 1020.1mb - -
6:48 11 17 mph 1020.2mb - -
6:36  -  mph 1020.2mb - 54f
6:30  -  mph 1020.3mb - 54f
6:24  -  mph 1020.3mb - 53f
6:18  -  mph 1020.3mb - 53f
6:12  -  mph 1020.3mb - 53f
6:06  -  mph 1020.3mb - 53f
6:00  -  mph 1020.3mb - 53f
5:54  -  mph 1020.3mb - 53f
5:48  -  mph 1020.3mb - 53f
4:36  -  mph 1020.5mb 52f 53f
4:30  -  mph 1020.6mb 52f 53f
4:24  -  mph 1020.6mb 52f 53f
4:18  -  mph 1020.6mb 52f 53f
4:12  -  mph 1020.6mb 52f 53f
4:06  -  mph 1020.7mb 52f 53f
4:00  -  mph 1020.6mb 52f 53f
3:54  -  mph 1020.5mb 52f 53f
3:48  -  mph 1020.5mb 52f 53f
3:36 20 26 mph - 52f 53f
3:30 21 28 mph - 52f 53f
3:24 20 26 mph - 52f 53f
3:18 21 29 mph - 52f 53f
3:12 18 25 mph - 52f 53f
3:06 21 28 mph - 52f 53f
3:00 20 25 mph - 52f 53f
2:54 18 26 mph - 52f 53f
2:48 18 25 mph - 52f 53f
2:36 16 24 mph 1020.7mb - -
2:30 15 20 mph 1020.7mb - -
2:24 13 18 mph 1020.7mb - -
2:18 16 22 mph 1020.6mb - -
2:12 16 23 mph 1020.6mb - -
2:06 16 24 mph 1020.6mb - -
2:00 15 21 mph 1020.6mb - -
1:54 14 21 mph 1020.5mb - -
1:48 18 24 mph 1020.5mb - -
1:36 18 25 mph 1020.5mb 52f 52f
1:30 21 28 mph 1020.4mb 52f 53f
1:24 23 28 mph 1020.4mb 52f 53f
1:18 22 28 mph 1020.4mb 51f 53f
1:12 20 29 mph 1020.5mb 51f 53f
1:06 21 26 mph 1020.4mb 51f 53f
1:00 24 29 mph 1020.4mb 51f 53f
12:54 23 30 mph 1020.3mb 51f 53f
12:48 23 29 mph 1020.3mb 51f 53f
12:36 24 30 mph 1020.4mb 51f 53f
12:30 25 31 mph 1020.3mb 51f 53f
12:24 24 31 mph 1020.3mb 51f 54f
12:18 22 29 mph 1020.4mb 51f 53f
12:12 22 30 mph 1020.5mb 51f 53f
12:06 24 30 mph 1020.4mb 51f 53f
12:00 22 30 mph 1020.4mb 51f 53f
11:54 22 28 mph 1020.4mb 51f 53f
11:48 20 29 mph 1020.3mb 51f 53f
11:36 22 31 mph 1020.3mb 51f 54f
11:30 22 26 mph 1020.2mb 51f 54f
11:24 21 28 mph 1020.2mb 51f 54f
11:18 22 28 mph 1020.2mb 51f 54f
11:12 22 26 mph 1020.2mb 51f 54f
11:06 22 30 mph 1020.2mb 51f 54f
11:00 23 30 mph 1020.2mb 51f 53f
10:54 22 30 mph 1020.1mb 51f 54f
10:48 20 25 mph 1020mb 51f 54f
10:36 20 25 mph 1020.1mb 51f 53f
10:30 17 21 mph 1020.2mb 51f 53f
10:24 17 22 mph 1020.2mb 51f 52f
10:18 16 18 mph 1020.3mb 51f 52f
10:12 14 17 mph 1020.3mb 51f 52f
10:06 13 15 mph 1020.4mb 51f 52f
10:00 13 15 mph 1020.5mb 51f 52f
9:54 14 16 mph 1020.5mb 51f 52f
9:48 13 16 mph 1020.5mb 51f 52f
9:36 11 14 mph 1020.5mb 51f 52f
9:30 7 10 mph 1020.6mb 51f 53f
9:24 1 3 mph 1020.6mb 51f 55f
9:18 3 6 mph 1020.6mb 51f 55f
9:12 2 5 mph 1020.6mb 51f 54f
9:06 5 6 mph 1020.7mb 51f 54f
9:00 3 6 mph 1020.7mb 51f 53f
8:54 3 6 mph 1020.8mb 51f 53f
8:48 3 5 mph 1020.8mb 51f 53f
8:36 3 5 mph 1020.8mb 51f 54f
8:30 2 3 mph 1020.8mb 51f 54f
8:24 1 2 mph 1020.9mb 51f 54f
8:18 2 3 mph 1020.9mb 51f 53f
8:12 1 2 mph 1020.8mb 51f 53f
8:06 2 3 mph 1020.8mb 51f 53f
8:00 3 5 mph 1020.8mb 51f 52f
7:54 5 6 mph 1020.7mb 51f 52f
7:48 3 5 mph 1020.7mb 51f 52f
7:36 3 6 mph 1020.7mb 51f 51f
7:30 3 5 mph 1020.6mb 51f 51f
7:24 3
mph
1020.6mb 51f 50f
7:18 3
mph
1020.5mb 51f 50f
7:12 3 5 mph 1020.5mb 51f 50f
7:06 2 3 mph 1020.5mb 51f 50f
7:00 3 5 mph 1020.5mb 51f 50f
6:54 3 6 mph 1020.5mb 51f 49f
6:48 5
mph
1020.5mb 51f 48f
6:36  -  2 mph 1020.4mb 51f 48f
6:30  -  1 mph 1020.4mb 51f 48f
6:24 1 3 mph 1020.4mb 51f 47f
6:18 1 2 mph 1020.3mb 51f 47f
6:12 2 5 mph 1020.3mb 51f 47f
6:06 1 3 mph 1020.2mb 51f 46f
6:00 2 3 mph 1020.2mb 51f 46f
5:36 2 5 mph 1020.2mb 51f 46f
5:30 3 5 mph 1020.2mb 51f 46f
5:24 2 3 mph 1020.2mb 51f 46f
5:18 3 5 mph 1020.2mb 51f 46f
5:12 1 5 mph 1020.1mb 51f 45f
5:06 2 6 mph 1020mb 51f 45f
5:00 5 6 mph 1020mb 51f 45f
4:54 5 6 mph 1019.9mb 51f 45f
4:48 5 6 mph 1019.9mb 51f 46f
4:36 6
mph
1019.8mb 51f 46f
4:30 5 6 mph 1019.9mb 51f 46f
4:24 2 3 mph 1019.9mb 51f 46f
4:18 5 6 mph 1020mb 51f 47f
4:12 1 3 mph 1019.9mb 51f 47f
4:06 3 6 mph 1020mb 51f 47f
4:00 1 3 mph 1020.1mb 51f 48f
3:54 2 7 mph 1020.1mb 51f 49f
3:48 6 8 mph 1020.1mb 51f 50f
3:36 7 9 mph 1020.1mb 51f 50f
3:30 5 9 mph 1020.1mb 51f 50f
3:24 6 9 mph 1020.3mb 51f 50f
3:18 9 14 mph 1020.3mb 51f 51f
3:12 9 13 mph 1020.4mb 51f 51f
3:06 9 11 mph 1020.4mb 51f 51f
3:00 9 11 mph 1020.3mb 51f 51f
2:54 8 10 mph 1020.3mb 51f 50f
2:48 10 15 mph 1020.2mb 51f 51f
2:36 10 16 mph 1020.3mb 51f 51f
2:30 11 16 mph 1020.3mb 51f 51f
2:24 8 13 mph 1020.4mb 51f 51f
2:18 7 13 mph 1020.5mb 51f 51f
2:12 10 16 mph 1020.5mb 51f 51f
2:06 10 14 mph 1020.5mb 51f 51f
2:00 11 17 mph 1020.5mb 51f 52f
1:54 11 15 mph 1020.5mb 51f 52f
1:48 10 14 mph 1020.5mb 51f 51f
1:36 7 10 mph 1020.5mb 51f 52f
1:30 6 10 mph 1020.6mb 51f 51f
1:24 8 11 mph 1020.5mb 51f 52f
1:18 10 14 mph 1020.5mb 51f 52f
1:12 8 11 mph 1020.5mb 51f 52f
1:06 9 13 mph 1020.4mb 51f 52f
1:00 9 11 mph 1020.4mb 51f 52f
12:54 9 11 mph 1020.5mb 51f 52f
12:48 7 10 mph 1020.5mb 51f 52f
12:36 10 15 mph 1020.6mb 51f 52f
12:30 11 15 mph 1020.5mb 51f 53f
12:24 8 13 mph 1020.7mb 51f 53f
12:18 7 18 mph 1020.7mb 51f 53f
12:12 14 20 mph 1020.7mb 51f 52f
12:06 7 13 mph 1020.8mb 51f 52f
12:00 9 14 mph 1020.9mb 51f 53f
jue 05/26 11:54 10 14 mph 1020.8mb 51f 53f
11:48 8 14 mph 1020.8mb 51f 53f
11:36 9 16 mph 1020.7mb 51f 53f
11:30 11 18 mph 1020.7mb 51f 53f
11:24 15 22 mph 1020.7mb 51f 53f
11:18 17 22 mph 1020.8mb 51f 53f
11:12 16 20 mph 1020.8mb 51f 54f
11:06 14 20 mph 1020.9mb 52f 54f
11:00 13 15 mph 1021mb 52f 54f
10:54 7 14 mph 1020.9mb 52f 54f
10:48 9 18 mph 1020.9mb 52f 55f
10:36 9 14 mph 1020.9mb 52f 54f
10:30 10 16 mph 1020.8mb 52f 54f
10:24 14 21 mph 1020.8mb 52f 54f
10:18 15 20 mph 1020.7mb 52f 54f
10:12 9 16 mph 1020.7mb 52f 54f
10:06 10 18 mph 1020.6mb 52f 54f
10:00 9 20 mph 1020.5mb 52f 54f
9:54 10 17 mph 1020.5mb 52f 54f
9:48 8 21 mph 1020.5mb 52f 54f
9:36 11 20 mph 1020.3mb 52f 54f
9:30 9 21 mph 1020.3mb 52f 54f
9:24 11 25 mph 1020.3mb 52f 54f
9:18 16 26 mph 1020.3mb 52f 55f
9:12 18 30 mph 1020.3mb 52f 55f
9:06 18 26 mph 1020.2mb 52f 54f
9:00 21 29 mph 1020.2mb 52f 54f
8:54 20 30 mph 1020.1mb 52f 54f
8:48 22 28 mph 1020mb 52f 54f
8:36 24 33 mph 1019.9mb 52f 54f
8:30 23 30 mph 1019.8mb 52f 54f
8:24 23 33 mph 1019.8mb 52f 54f
8:18 23 33 mph 1019.8mb 52f 54f
8:12 25 36 mph 1019.7mb 52f 54f
8:06 24 36 mph 1019.6mb 52f 54f
8:00 24 33 mph 1019.6mb 52f 54f
7:54 26 32 mph 1019.6mb 52f 54f
7:48 28 33 mph 1019.5mb 52f 55f
7:36  -  mph 1019.4mb - -
7:30  -  mph 1019.4mb - -
7:24  -  mph 1019.5mb - -
7:18  -  mph 1019.5mb - -
7:12  -  mph 1019.6mb - -
7:06  -  mph 1019.6mb - -
7:00  -  mph 1019.7mb - -
6:54  -  mph 1019.7mb - -
6:48  -  mph 1019.7mb - -
6:36 25 32 mph 1019.7mb 52f -
6:30 18 23 mph 1019.8mb 52f -
6:24 18 29 mph 1019.9mb 52f -
6:18 22 28 mph 1019.9mb 52f -
6:12 18 24 mph 1020mb 52f -
6:06 22 30 mph 1020.1mb 52f -
6:00 22 30 mph 1020.1mb 52f -
5:54 22 28 mph 1020.2mb 52f -
5:48 21 28 mph 1020.3mb 52f -
5:36 22 30 mph 1020.4mb 52f 55f
5:30 21 26 mph 1020.5mb 52f 55f
5:24 17 26 mph 1020.6mb 52f 55f
5:18 14 22 mph 1020.7mb 52f 54f
5:12 16 20 mph 1020.8mb 52f 54f
5:06 15 22 mph 1020.9mb 52f 54f
5:00 16 22 mph 1021mb 52f 54f
4:54 16 21 mph 1021mb 52f 54f
4:48 14 20 mph 1021.1mb 52f 53f
4:36 14 21 mph 1021.2mb - -
4:30 15 21 mph 1021.2mb - -
4:24 15 20 mph 1021.3mb - -
4:18 15 20 mph 1021.3mb - -
4:12 15 22 mph 1021.3mb - -
4:06 15 22 mph 1021.4mb - -
4:00 15 24 mph 1021.4mb - -
3:54 17 22 mph 1021.5mb - -
3:48 18 23 mph 1021.5mb - -
3:36  -  mph 1021.6mb 52f -
3:30  -  mph 1021.6mb 52f -
3:24  -  mph 1021.6mb 52f -
3:18  -  mph 1021.6mb 52f -
3:12  -  mph 1021.6mb 51f -
3:06  -  mph 1021.7mb 51f -
3:00  -  mph 1021.7mb 51f -
2:54  -  mph 1021.7mb 51f -
2:48  -  mph 1021.8mb 51f -
2:36 13 18 mph 1021.8mb 51f 53f
2:30 14 18 mph 1021.8mb 51f 53f
2:24 13 17 mph 1021.9mb 51f 53f
2:18 10 15 mph 1021.9mb 51f 53f
2:12 11 17 mph 1022mb 51f 53f
2:06 13 17 mph 1022mb 51f 53f
2:00 11 16 mph 1022mb 51f 53f
1:54 11 18 mph 1022mb 51f 53f
1:48 14 17 mph 1022mb 51f 53f
1:36 13 16 mph 1022.1mb 51f 53f
1:30 14 18 mph 1022.1mb 51f 53f
1:24 14 17 mph 1022.1mb 51f 53f
1:18 13 16 mph 1022.1mb 51f 53f
1:12 11 15 mph 1022.1mb 51f 53f
1:06 10 16 mph 1022.1mb 51f 53f
1:00 10 15 mph 1022.1mb 51f 52f
12:54 11 14 mph 1022.1mb 51f 52f
12:48 13 16 mph 1022mb 51f 53f
12:36 14 17 mph - - -
12:30 13 17 mph 1022mb 51f 53f
12:24 14 18 mph 1021.9mb 51f 53f
12:18 14 17 mph 1021.9mb 51f 53f
12:12 14 20 mph 1021.9mb 51f 53f
12:06 14 18 mph 1022mb 51f 53f
12:00 11 17 mph 1022mb 51f 53f
11:54 14 18 mph 1022.1mb 51f 53f
11:48 10 13 mph 1022.1mb 51f 53f
11:36 15 22 mph 1022mb 51f 53f
11:30 14 18 mph 1022mb 51f 53f
11:24 15 18 mph 1022mb 51f 53f
11:18 14 18 mph 1022mb 51f 53f
11:12 14 20 mph 1022.1mb 51f 53f
11:06 15 18 mph 1022mb 51f 53f
11:00 10 16 mph 1022mb 51f 53f
10:54 14 16 mph 1022mb 51f 53f
10:48 11 16 mph 1022mb 51f 53f
10:36 9 13 mph 1021.9mb 51f 53f
10:30 9 13 mph 1021.9mb 51f 53f
10:24 8 13 mph 1021.9mb 51f 53f
10:18 9 13 mph 1021.9mb 51f 53f
10:12 8 10 mph 1022mb 51f 53f
10:06 7 9 mph 1022mb 51f 53f
10:00 8 11 mph 1022mb 51f 53f
9:54 7 10 mph 1022mb 51f 53f
9:48 6 9 mph 1022mb 51f 53f
9:36 7 9 mph 1022mb 51f 53f
9:30 6 8 mph 1022mb 51f 53f
9:24 6 7 mph 1022.1mb 51f 53f
9:18 5 7 mph 1022.1mb 51f 53f
9:12 1 5 mph 1022.1mb 51f 55f
9:06 3 7 mph 1022.1mb 51f 53f
9:00 3 7 mph 1022mb 51f 54f
8:54 6 9 mph 1022mb 51f 54f
8:48 6 9 mph 1022mb 51f 55f
8:36 5 6 mph 1022mb 51f 55f
8:30 1 3 mph 1022.1mb 51f 56f
8:24 1 2 mph 1022.1mb 51f 56f
8:18 3 6 mph 1022.1mb 51f 56f
8:12 3 5 mph 1022.1mb 51f 55f
8:06 1 2 mph 1022mb 51f 54f
8:00 2
mph
1022mb 51f 55f
7:36  -  1 mph 1022.2mb 51f 53f
7:30 1 2 mph 1022.2mb 51f 53f
7:24 1 2 mph 1022.2mb 51f 53f
7:18 1 3 mph 1022.1mb 51f 53f
7:12  -  2 mph 1022.1mb 51f 53f
7:06  -  2 mph 1022.1mb 51f 53f
7:00 3 5 mph 1022.1mb 51f 53f